Location: Los Angeles
(34.0542°N, 118.2411°W)
Time: 00:58:12
(UTC-07:00)

Daily predictions for brighter satellites

Satellite Brightness Start Highest point End
(mag) Time Altitude Azimuth Time Altitude Azimuth Time Altitude Azimuth
NOSS 3-2 (A) 3.9 00:22:03 58° N 00:22:03 58° N 00:27:29 10° NNE
Atlas Centaur 2 4.2 00:16:49 10° W 00:20:39 30° WSW 00:20:39 30° WSW
Cosmos 2344 3.9 00:27:26 52° E 00:27:26 52° E 00:34:17 10° NE
S3M 4.5 00:43:16 10° N 00:48:02 55° NNW 00:48:02 55° NNW
Cosmos 2082 Rocket 3.4 00:56:18 37° NE 00:56:18 37° NE 00:59:43 10° NNE
Timation 2 Rocket 4.4 00:55:08 65° NNW 00:55:08 65° NNW 01:01:13 10° NNE
CZ-4C R/B 3.4 00:57:08 36° NW 00:57:08 36° NW 01:01:50 10° NNE
Cosmos 1697 Rocket 4.4 00:54:33 10° N 00:59:08 24° ENE 00:59:19 24° ENE
Cosmos 1833 Rocket 3.9 01:05:17 36° NE 01:05:17 36° NE 01:08:41 10° NNE
CZ-2C R/B 4.3 01:11:20 39° NE 01:11:20 39° NE 01:15:38 10° N
CENTAUR R/B 3.2 01:24:49 47° ENE 01:24:49 47° ENE 01:29:43 10° NE
CZ-2C R/B 3.7 01:35:14 10° N 01:39:10 40° NNW 01:39:10 40° NNW
Meteor 1-11 4.5 02:11:09 68° NNE 02:11:09 68° NNE 02:16:12 10° N
IRAS Rocket 4.4 02:14:06 10° NNE 02:18:54 68° NE 02:18:54 68° NE
Cosmos 540 Rocket 4.2 02:16:20 10° NNW 02:19:57 46° NNW 02:19:57 46° NNW
Cosmos 1980 Rocket 2.4 02:17:12 10° NNW 02:22:16 69° NNE 02:22:16 69° NNE
Cosmos 1386 Rocket 4.5 02:24:29 72° ESE 02:24:39 73° E 02:30:48 10° N
Sich 1 4.5 02:30:31 34° NNW 02:30:31 34° NNW 02:33:10 10° N
NPP 3.8 02:27:30 10° NNE 02:32:33 70° ENE 02:32:33 70° ENE
Cosmos 1745 Rocket 4.0 02:33:26 68° WNW 02:33:26 68° WNW 02:39:42 10° N
Lacrosse 5 2.4 02:28:45 10° NNW 02:33:04 57° N 02:33:04 57° N
Cosmos 2082 Rocket 4.2 02:38:07 15° WNW 02:38:41 15° NW 02:41:57 10° NNW
USA 215 3.3 02:32:59 10° NE 02:39:28 67° NW 02:40:39 56° W
Cosmos 1697 Rocket 4.0 02:37:56 10° NW 02:41:01 29° WNW 02:41:01 29° WNW
Nadezhda 1 Rocket 3.7 02:38:30 10° N 02:44:39 80° W 02:44:50 79° WSW
Meteor 2-10 4.4 02:39:42 10° N 02:44:55 61° E 02:45:29 57° ESE
Cosmos 1709 Rocket 4.2 02:43:51 53° SE 02:45:03 64° E 02:51:15 10° NNE
Cosmos 1455 3.8 02:46:12 10° N 02:48:56 33° NE 02:48:56 33° NE
SEDSat Delta rocket 3.9 02:50:57 71° SSW 02:51:15 72° S 02:57:59 10° E
Cosmos 1862 Rocket 4.2 02:47:10 10° N 02:51:20 53° ENE 02:51:20 53° ENE
Cosmos 371 Rocket 3.5 02:46:46 10° NNW 02:50:57 65° N 02:50:57 65° N
ATLAS 5 CENTAUR R/B 2.3 02:55:32 50° ESE 02:55:32 50° ESE 03:00:14 10° NE
Cosmos 968 Rocket 4.1 02:59:21 43° NW 02:59:21 43° NW 03:03:51 10° N
BREEZE-M DEB (TANK) 3.9 03:02:03 63° WSW 03:03:01 84° NW 03:17:51 10° NE
IRS-1C 3.9 02:57:52 10° NNE 03:03:14 87° WNW 03:03:37 78° SSW
Cosmos 1626 3.1 03:09:24 43° N 03:09:24 43° N 03:12:01 10° N
Cosmos 2360 4.2 03:02:45 10° NNW 03:08:13 62° W 03:08:13 62° W
OAO 1 4.5 03:10:44 66° SSE 03:10:46 66° SSE 03:16:14 10° E
CENTAUR R/B 4.1 03:11:58 18° WNW 03:14:26 23° NW 03:19:38 10° N
ISS 0.1 03:13:38 10° N 03:15:16 13° NNE 03:16:53 10° ENE
Cosmos 1869 3.5 03:11:55 10° N 03:15:30 67° NNE 03:15:30 67° NNE
AQUA 4.3 03:11:26 10° N 03:15:48 47° WNW 03:15:48 47° WNW
H-2A ROCKET BODY 2.9 03:18:25 28° SE 03:18:25 28° SE 03:19:51 10° ESE
Resurs 1-4 Rocket 3.0 03:12:48 10° NNE 03:17:51 42° E 03:20:07 28° SSE
ATLAS 2A CENTAUR R/B 3.7 03:17:51 35° S 03:20:23 43° SE 03:48:51 10° E
SL-16 R/B 2.1 03:19:02 10° NNW 03:24:44 87° WSW 03:27:28 32° SSE
Spot 4 Rocket 3.9 03:20:53 10° N 03:26:01 73° WNW 03:26:55 58° SW
OAO 1 Rocket 4.3 03:24:50 49° W 03:26:18 80° SSW 03:31:40 10° ESE
Cosmos 923 Rocket 4.0 03:22:54 10° NNW 03:28:11 83° ENE 03:30:44 31° SSE
OAO 3 Rocket 3.1 03:28:58 52° WNW 03:30:02 78° N 03:34:45 10° E
Cosmos 1271 Rocket 4.1 03:30:38 10° NNW 03:32:41 26° NW 03:32:41 26° NW
EO 1 Del DPAF 3.5 03:34:35 45° SE 03:35:36 68° ENE 03:39:30 10° N
Cosmos 2322 Rocket 2.1 03:31:23 10° NNW 03:36:56 62° WSW 03:38:48 40° S
USA 229 DEB 4.1 03:33:33 30° S 03:36:56 57° ESE 03:43:44 10° NE
USA 229 4.1 03:33:38 30° S 03:37:03 57° ESE 03:43:50 10° NE
Cosmos 1680 Rocket 3.6 03:32:15 10° NNW 03:37:29 77° ENE 03:41:37 16° SSE
GPS 2-05 Rocket1 3.0 03:40:06 67° NE 03:40:06 67° NE 03:43:12 10° ENE
Cosmos 2181 Rocket 4.0 03:38:00 10° NNW 03:44:02 60° W 03:46:40 34° SSW
Cosmos 773 Rocket 4.1 03:39:56 10° NNW 03:44:54 51° WSW 03:45:55 44° SW
Cosmos 1933 3.2 03:41:08 10° N 03:45:10 85° E 03:46:19 46° S
Lacrosse 5 rocket 1.6 03:42:04 10° NW 03:46:31 81° NE 03:51:07 10° SE
Cosmos 1703 Rocket 3.4 03:42:14 10° N 03:46:36 87° E 03:48:20 36° S
BREEZE-M DEB (TANK) 4.4 03:46:46 15° WNW 03:49:00 26° N 03:55:44 10° NE
GOES 2 Rocket 4.4 03:50:59 24° SSE 03:50:59 24° SSE 03:54:22 10° ESE
ARIANE 5 R/B 2.7 03:49:26 10° N 03:54:25 56° WNW 03:56:10 37° SW
IRS-1D 3.7 03:51:24 10° N 03:56:40 62° WNW 03:58:55 33° SW
Cosmos 1898 Rocket 3.4 04:00:56 27° SSW 04:03:48 85° ESE 04:09:00 10° NNE
CZ-2D R/B 2.1 03:59:54 10° N 04:05:07 67° WNW 04:07:59 27° SSW
MOS 1-B 4.3 03:59:51 10° N 04:05:37 71° WNW 04:09:08 25° SSW
Cosmos 2227 Rocket 4.4 04:02:40 10° SE 04:06:35 20° E 04:10:32 10° NE
Cosmos 2360 Rocket 2.3 04:01:58 10° NNW 04:07:38 81° ENE 04:13:15 10° SSE
In-Cosmos 22 Rocket 4.1 04:04:53 19° S 04:08:45 81° E 04:14:08 10° N
Cosmos 2074 Rocket 4.1 04:07:23 25° SSW 04:11:02 58° W 04:17:11 10° N
Cosmos 1937 Rocket 3.7 04:07:56 19° S 04:11:46 70° ESE 04:17:03 10° NNE
SL-16 R/B 2.6 04:07:45 11° S 04:13:41 61° WSW 04:19:54 10° NNW
Okean 1-7 2.9 04:09:25 10° N 04:13:47 75° W 04:17:13 16° S
Meteor 1-26 Rocket 4.1 04:08:57 10° N 04:14:30 86° W 04:20:01 10° S
Cosmos 2184 Rocket 4.2 04:12:08 23° SSW 04:16:08 55° W 04:22:22 10° N
CZ-4B R/B 3.7 04:10:57 10° NNE 04:16:22 59° ESE 04:21:50 10° S
Cosmos 2219 3.2 04:14:49 24° SSW 04:18:22 71° WNW 04:24:08 10° NNE
Cosmos 2150 Rocket 4.1 04:15:53 24° SSW 04:19:00 65° WNW 04:24:20 10° N
Cosmos 2322 3.6 04:17:26 10° NNW 04:23:10 76° WSW 04:28:51 10° SSE
Okean O Rocket 1.5 04:21:53 10° N 04:26:20 83° WNW 04:29:53 16° SSW
MOZ.5/SAFIR/RUBIN 5/SL-8 4.4 04:29:56 10° SSE 04:34:30 59° ENE 04:39:09 10° N
GP-B 4.3 04:32:28 10° NNE 04:36:42 42° E 04:40:55 10° SSE
BREEZE-M DEB (TANK) 4.4 04:35:33 10° NNW 04:37:18 17° NNE 04:38:58 10° ENE
SEDSat Delta rocket 4.1 04:31:13 10° W 04:37:51 56° SSW 04:44:12 10° ESE
ADEOS II 4.1 04:34:10 10° NE 04:38:32 26° E 04:42:53 10° SSE
CZ-4B DEB 4.3 04:33:53 10° NNE 04:39:24 86° ESE 04:44:56 10° SSW
Cosmos 2297 Rocket 4.1 04:35:04 10° SSE 04:39:41 26° ESE 04:44:20 10° NE
ATLAS 5 CENTAUR R/B 3.7 04:37:05 11° W 04:40:20 19° NW 04:44:00 10° N
Cosmos 1892 2.7 04:38:48 11° S 04:42:34 76° W 04:46:28 10° N
PAYLOAD B 4.3 04:42:15 10° N 04:47:42 68° WNW 04:53:11 10° SSW
UNKNOWN OBJECT B 4.3 04:46:42 10° NNW 04:49:38 21° WNW 04:51:52 14° WSW
ISS -3.5 04:48:47 10° NW 04:52:02 71° SW 04:55:16 10° SE
Okean-O 3.1 04:48:42 10° NNE 04:53:07 63° E 04:57:29 10° S
BREEZE-M DEB (TANK) 3.8 04:43:20 12° WSW 04:53:10 49° NW 04:56:39 10° NE
COSMOS 2428 2.7 04:47:58 10° NNW 04:53:40 87° WSW 04:59:20 10° SSE
Resurs 1-4 Rocket 3.6 04:53:30 10° NNW 04:57:21 21° WNW 05:01:10 10° WSW
NOSS 3-1 (C) 3.5 04:56:30 10° SSW 05:02:14 76° ESE 05:08:32 10° NNE
AVUM R/B 2.5 05:01:51 13° SW 05:03:36 46° WNW 05:05:39 10° N
CZ-2C R/B 4.3 04:59:34 10° SSW 05:03:38 35° W 05:07:47 10° NNW
Cosmos 292 Rocket 3.7 04:59:13 10° NNW 05:03:59 69° WSW 05:08:43 10° S
DELTA 2 R/B (1) 4.1 05:01:59 10° SW 05:07:24 53° SSE 05:12:50 10° ENE
Coronas F rocket 1.4 05:07:08 10° SSW 05:09:48 58° W 05:12:31 10° N
Cosmos 2237 Rocket 3.8 05:07:56 10° N 05:13:20 42° ENE 05:18:41 10° SE
OAO 3 Rocket 3.1 05:08:56 10° W 05:13:35 70° SSW 05:18:18 10° ESE
ADEOS Rocket 4.3 05:09:23 10° NNE 05:14:59 39° E 05:20:10 10° SSE
ATLAS CENTAUR R/B 1.5 05:10:30 10° NW 05:15:00 63° WSW 05:19:07 10° SSE
Cosmos 2237 4.4 05:10:29 10° NNW 05:16:02 52° WSW 05:21:33 10° S
GPS 2-05 Rocket1 3.0 05:14:52 10° WNW 05:18:14 74° N 05:21:44 10° E
Ariane Rocket 4.5 05:16:59 10° NNE 05:21:46 39° E 05:26:30 10° SSE
Meteor 1-27 Rocket 4.1 05:16:20 10° N 05:22:17 78° E 05:28:12 10° SSE
